| time (UTC) | temp F | wind direction | speed MPH | gust MPH | rain 1hr in | rain 24hr in | rain mn in | humidity % | barometer mb |
| 20260508004036 | 67 | 5 | 0.0 | 8.0 | 0.00 | 0.00 | 0.00 | 29 | 1004.1 |
| 20260508003536 | 67 | 5 | 0.0 | 8.0 | 0.00 | 0.00 | 0.00 | 28 | 1004.0 |
| 20260508003036 | 67 | 5 | 0.0 | 8.0 | 0.00 | 0.00 | 0.00 | 28 | 1004.1 |
| 20260508002536 | 67 | 5 | 0.0 | 8.0 | 0.00 | 0.00 | 0.00 | 29 | 1004.1 |
| 20260508002035 | 67 | 5 | 0.0 | 8.0 | 0.00 | 0.00 | 0.00 | 28 | 1004.0 |
| 20260508001535 | 67 | 5 | 0.0 | 8.0 | 0.00 | 0.00 | 0.00 | 28 | 1004.0 |
| 20260508001035 | 68 | 13 | 0.0 | 8.0 | 0.00 | 0.00 | 0.00 | 27 | 1003.9 |
| 20260508000535 | 68 | 49 | 1.0 | 8.0 | 0.00 | 0.00 | 0.00 | 28 | 1004.0 |
| 20260508000035 | 68 | 90 | 0.0 | 8.0 | 0.00 | 0.00 | 0.00 | 28 | 1003.8 |
| 20260507235535 | 68 | 86 | 0.0 | 8.0 | 0.00 | 0.00 | 0.00 | 28 | 1003.8 |
| 20260507235037 | 68 | 84 | 0.0 | 8.0 | 0.00 | 0.00 | 0.00 | 27 | 1003.8 |
| 20260507234537 | 68 | 15 | 0.0 | 8.0 | 0.00 | 0.00 | 0.00 | 28 | 1003.7 |
| 20260507234036 | 68 | 15 | 0.0 | 8.0 | 0.00 | 0.00 | 0.00 | 28 | 1003.8 |
| 20260507233536 | 68 | 19 | 0.0 | 8.0 | 0.00 | 0.00 | 0.00 | 28 | 1003.8 |
| 20260507233036 | 67 | 19 | 0.0 | 8.0 | 0.00 | 0.00 | 0.00 | 27 | 1003.7 |
| 20260507232536 | 67 | 351 | 1.0 | 8.0 | 0.00 | 0.00 | 0.00 | 27 | 1003.8 |
| 20260507232036 | 67 | 343 | 0.0 | 8.0 | 0.00 | 0.00 | 0.00 | 28 | 1003.9 |
| 20260507231536 | 67 | 9 | 1.0 | 8.0 | 0.00 | 0.00 | 0.00 | 28 | 1003.8 |
| 20260507231035 | 67 | 0 | 0.0 | 8.0 | 0.00 | 0.00 | 0.00 | 27 | 1003.7 |
| 20260507230536 | 67 | 32 | 0.0 | 8.0 | 0.00 | 0.00 | 0.00 | 27 | 1003.8 |
| 20260507230036 | 67 | 14 | 0.0 | 8.0 | 0.00 | 0.00 | 0.00 | 26 | 1003.8 |
| 20260507225536 | 67 | 5 | 0.0 | 8.0 | 0.00 | 0.00 | 0.00 | 26 | 1003.8 |
| 20260507225035 | 68 | 1 | 1.0 | 8.0 | 0.00 | 0.00 | 0.00 | 26 | 1003.8 |
| 20260507224535 | 68 | 5 | 1.0 | 8.0 | 0.00 | 0.00 | 0.00 | 26 | 1003.7 |
| 20260507224035 | 69 | 21 | 2.0 | 8.0 | 0.00 | 0.00 | 0.00 | 26 | 1003.6 |
| 20260507223537 | 69 | 10 | 1.0 | 8.0 | 0.00 | 0.00 | 0.00 | 25 | 1003.6 |
| 20260507223036 | 69 | 19 | 1.0 | 8.0 | 0.00 | 0.00 | 0.00 | 25 | 1003.7 |
| 20260507222536 | 69 | 8 | 0.0 | 8.0 | 0.00 | 0.00 | 0.00 | 25 | 1003.7 |
| 20260507222035 | 69 | 5 | 1.0 | 8.0 | 0.00 | 0.00 | 0.00 | 25 | 1003.7 |
| 20260507221535 | 69 | 5 | 1.0 | 8.0 | 0.00 | 0.00 | 0.00 | 25 | 1003.8 |
| 20260507221036 | 69 | 5 | 1.0 | 8.0 | 0.00 | 0.00 | 0.00 | 25 | 1003.8 |
| 20260507220535 | 69 | 336 | 1.0 | 8.0 | 0.00 | 0.00 | 0.00 | 26 | 1003.8 |
| 20260507220035 | 69 | 89 | 0.0 | 8.0 | 0.00 | 0.00 | 0.00 | 26 | 1003.8 |
| 20260507215535 | 69 | 13 | 0.0 | 8.0 | 0.00 | 0.00 | 0.00 | 26 | 1003.8 |
| 20260507215036 | 68 | 14 | 1.0 | 8.0 | 0.00 | 0.00 | 0.00 | 26 | 1003.8 |
| 20260507214536 | 68 | 28 | 2.0 | 8.0 | 0.00 | 0.00 | 0.00 | 27 | 1003.8 |
| 20260507214036 | 68 | 0 | 1.0 | 8.0 | 0.00 | 0.00 | 0.00 | 26 | 1003.9 |
| 20260507213535 | 68 | 10 | 1.0 | 8.0 | 0.00 | 0.00 | 0.00 | 26 | 1004.0 |
| 20260507213035 | 68 | 5 | 1.0 | 8.0 | 0.00 | 0.00 | 0.00 | 27 | 1004.1 |
| 20260507212535 | 69 | 28 | 1.0 | 8.0 | 0.00 | 0.00 | 0.00 | 26 | 1004.2 |
| 20260507212036 | 69 | 15 | 2.0 | 8.0 | 0.00 | 0.00 | 0.00 | 27 | 1004.2 |
| 20260507211535 | 69 | 355 | 1.0 | 8.0 | 0.00 | 0.00 | 0.00 | 27 | 1004.3 |
| 20260507211035 | 68 | 28 | 0.0 | 8.0 | 0.00 | 0.00 | 0.00 | 28 | 1004.3 |
| 20260507210536 | 68 | 33 | 1.0 | 8.0 | 0.00 | 0.00 | 0.00 | 27 | 1004.4 |
| 20260507210035 | 68 | 8 | 2.0 | 8.0 | 0.00 | 0.00 | 0.00 | 28 | 1004.4 |
| 20260507205535 | 67 | 27 | 0.0 | 8.0 | 0.00 | 0.00 | 0.00 | 28 | 1004.4 |
| 20260507205035 | 67 | 35 | 0.0 | 8.0 | 0.00 | 0.00 | 0.00 | 28 | 1004.5 |
| 20260507204535 | 67 | 77 | 0.0 | 8.0 | 0.00 | 0.00 | 0.00 | 28 | 1004.6 |
| 20260507204036 | 67 | 19 | 1.0 | 8.0 | 0.00 | 0.00 | 0.00 | 28 | 1004.6 |
| 20260507203535 | 67 | 202 | 0.0 | 8.0 | 0.00 | 0.00 | 0.00 | 29 | 1004.6 |
| 20260507203036 | 67 | 205 | 0.0 | 8.0 | 0.00 | 0.00 | 0.00 | 29 | 1004.6 |
| 20260507202536 | 67 | 54 | 0.0 | 8.0 | 0.00 | 0.00 | 0.00 | 29 | 1004.7 |
| 20260507202035 | 67 | 207 | 0.0 | 8.0 | 0.00 | 0.00 | 0.00 | 31 | 1004.7 |
| 20260507201534 | 67 | 5 | 0.0 | 8.0 | 0.00 | 0.00 | 0.00 | 30 | 1004.7 |
| 20260507201036 | 67 | 0 | 1.0 | 8.0 | 0.00 | 0.00 | 0.00 | 30 | 1004.7 |
| 20260507200536 | 67 | 5 | 1.0 | 8.0 | 0.00 | 0.00 | 0.00 | 29 | 1004.7 |
| 20260507200035 | 67 | 36 | 0.0 | 8.0 | 0.00 | 0.00 | 0.00 | 30 | 1004.7 |
| 20260507195536 | 66 | 12 | 1.0 | 8.0 | 0.00 | 0.00 | 0.00 | 29 | 1004.7 |
| 20260507195036 | 66 | 14 | 0.0 | 8.0 | 0.00 | 0.00 | 0.00 | 31 | 1004.7 |
| 20260507194536 | 66 | 8 | 2.0 | 8.0 | 0.00 | 0.00 | 0.00 | 29 | 1004.8 |
| 20260507194035 | 66 | 5 | 0.0 | 8.0 | 0.00 | 0.00 | 0.00 | 31 | 1004.7 |
| 20260507193536 | 66 | 29 | 0.0 | 8.0 | 0.00 | 0.00 | 0.00 | 32 | 1004.7 |
| 20260507193034 | 65 | 36 | 0.0 | 8.0 | 0.00 | 0.00 | 0.00 | 33 | 1004.7 |
| 20260507192536 | 65 | 35 | 0.0 | 8.0 | 0.00 | 0.00 | 0.00 | 31 | 1004.8 |
| 20260507192036 | 65 | 31 | 0.0 | 8.0 | 0.00 | 0.00 | 0.00 | 31 | 1004.7 |
| 20260507191535 | 65 | 70 | 0.0 | 8.0 | 0.00 | 0.00 | 0.00 | 30 | 1004.7 |
| 20260507191035 | 66 | 94 | 0.0 | 8.0 | 0.00 | 0.00 | 0.00 | 30 | 1004.7 |
| 20260507190536 | 66 | 53 | 0.0 | 8.0 | 0.00 | 0.00 | 0.00 | 30 | 1004.8 |
| 20260507190034 | 66 | 301 | 0.0 | 8.0 | 0.00 | 0.00 | 0.00 | 30 | 1004.8 |
| 20260507185535 | 66 | 11 | 0.0 | 8.0 | 0.00 | 0.00 | 0.00 | 30 | 1004.9 |
| 20260507185035 | 66 | 10 | 0.0 | 8.0 | 0.00 | 0.00 | 0.00 | 30 | 1004.9 |
| 20260507184535 | 66 | 355 | 0.0 | 8.0 | 0.00 | 0.00 | 0.00 | 30 | 1004.9 |
| 20260507184034 | 66 | 23 | 1.0 | 8.0 | 0.00 | 0.00 | 0.00 | 29 | 1004.8 |
| 20260507183534 | 66 | 0 | 3.0 | 8.0 | 0.00 | 0.00 | 0.00 | 29 | 1004.9 |
| 20260507183035 | 66 | 17 | 0.0 | 8.0 | 0.00 | 0.00 | 0.00 | 30 | 1004.9 |
| 20260507182535 | 66 | 5 | 0.0 | 8.0 | 0.00 | 0.00 | 0.00 | 30 | 1004.9 |
| 20260507182035 | 65 | 9 | 0.0 | 8.0 | 0.00 | 0.00 | 0.00 | 30 | 1004.9 |
| 20260507181535 | 65 | 18 | 1.0 | 8.0 | 0.00 | 0.00 | 0.00 | 31 | 1004.9 |
| 20260507181035 | 65 | 20 | 2.0 | 8.0 | 0.00 | 0.00 | 0.00 | 30 | 1004.9 |
| 20260507180535 | 65 | 340 | 0.0 | 8.0 | 0.00 | 0.00 | 0.00 | 30 | 1005.0 |
| 20260507180034 | 65 | 4 | 1.0 | 7.0 | 0.00 | 0.00 | 0.00 | 31 | 1004.9 |
| 20260507175534 | 65 | 33 | 1.0 | 7.0 | 0.00 | 0.00 | 0.00 | 31 | 1005.0 |
| 20260507175036 | 65 | 46 | 1.0 | 7.0 | 0.00 | 0.00 | 0.00 | 30 | 1004.8 |
| 20260507174536 | 65 | 13 | 0.0 | 7.0 | 0.00 | 0.00 | 0.00 | 32 | 1004.8 |
| 20260507174039 | 65 | 39 | 1.0 | 7.0 | 0.00 | 0.00 | 0.00 | 31 | 1004.9 |
| 20260507173538 | 64 | 5 | 1.0 | 7.0 | 0.00 | 0.00 | 0.00 | 31 | 1005.0 |
| 20260507173038 | 64 | 0 | 2.0 | 7.0 | 0.00 | 0.00 | 0.00 | 31 | 1005.1 |
| 20260507172539 | 64 | 33 | 0.0 | 7.0 | 0.00 | 0.00 | 0.00 | 31 | 1005.2 |
| 20260507172039 | 64 | 42 | 0.0 | 7.0 | 0.00 | 0.00 | 0.00 | 32 | 1005.3 |
| 20260507171701 | 64 | 33 | 1.0 | 7.0 | 0.00 | 0.00 | 0.00 | 33 | 1005.3 |
| 20260507171201 | 64 | 19 | 2.0 | 7.0 | 0.00 | 0.00 | 0.00 | 32 | 1005.3 |
| 20260507170700 | 64 | 6 | 1.0 | 7.0 | 0.00 | 0.00 | 0.00 | 32 | 1005.3 |
| 20260507170200 | 64 | 0 | 0.0 | 7.0 | 0.00 | 0.00 | 0.00 | 33 | 1005.3 |
| 20260507165700 | 63 | 70 | 1.0 | 7.0 | 0.00 | 0.00 | 0.00 | 34 | 1005.4 |
| 20260507165201 | 62 | 6 | 0.0 | 7.0 | 0.00 | 0.00 | 0.00 | 35 | 1005.3 |
| 20260507164700 | 62 | 30 | 3.0 | 7.0 | 0.00 | 0.00 | 0.00 | 34 | 1005.3 |
| 20260507164200 | 61 | 9 | 0.0 | 7.0 | 0.00 | 0.00 | 0.00 | 36 | 1005.3 |
| 20260507163700 | 61 | 32 | 1.0 | 7.0 | 0.00 | 0.00 | 0.00 | 36 | 1005.4 |
| 20260507163200 | 61 | 3 | 3.0 | 7.0 | 0.00 | 0.00 | 0.00 | 35 | 1005.4 |
| 20260507162700 | 60 | 338 | 1.0 | 6.0 | 0.00 | 0.00 | 0.00 | 36 | 1005.4 |
| 20260507162159 | 60 | 12 | 1.0 | 6.0 | 0.00 | 0.00 | 0.00 | 37 | 1005.4 |
| 20260507161659 | 60 | 11 | 1.0 | 5.0 | 0.00 | 0.00 | 0.00 | 39 | 1005.5 |
| 20260507161159 | 59 | 11 | 0.0 | 5.0 | 0.00 | 0.00 | 0.00 | 39 | 1005.5 |
| 20260507160659 | 59 | 9 | 0.0 | 5.0 | 0.00 | 0.00 | 0.00 | 39 | 1005.5 |
| 20260507160200 | 59 | 9 | 0.0 | 5.0 | 0.00 | 0.00 | 0.00 | 40 | 1005.7 |
| 20260507155700 | 59 | 9 | 0.0 | 5.0 | 0.00 | 0.00 | 0.00 | 41 | 1005.8 |
| 20260507155200 | 59 | 9 | 0.0 | 5.0 | 0.00 | 0.00 | 0.00 | 40 | 1005.8 |
| 20260507154700 | 59 | 19 | 0.0 | 5.0 | 0.00 | 0.00 | 0.00 | 41 | 1006.0 |
| 20260507154159 | 58 | 7 | 0.0 | 5.0 | 0.00 | 0.00 | 0.00 | 41 | 1006.0 |
| 20260507153659 | 58 | 19 | 0.0 | 5.0 | 0.00 | 0.00 | 0.00 | 42 | 1006.2 |
| 20260507153200 | 58 | 29 | 0.0 | 5.0 | 0.00 | 0.00 | 0.00 | 43 | 1006.1 |
| 20260507152700 | 58 | 7 | 1.0 | 5.0 | 0.00 | 0.00 | 0.00 | 42 | 1006.2 |
| 20260507152200 | 58 | 42 | 0.0 | 5.0 | 0.00 | 0.00 | 0.00 | 44 | 1006.2 |
| 20260507151700 | 57 | 350 | 0.0 | 4.0 | 0.00 | 0.00 | 0.00 | 44 | 1006.2 |
| 20260507151200 | 57 | 231 | 0.0 | 3.0 | 0.00 | 0.00 | 0.00 | 45 | 1006.2 |
| 20260507150700 | 56 | 231 | 0.0 | 3.0 | 0.00 | 0.00 | 0.00 | 46 | 1006.3 |
| 20260507150200 | 56 | 221 | 0.0 | 3.0 | 0.00 | 0.00 | 0.00 | 48 | 1006.4 |
| 20260507145659 | 55 | 221 | 0.0 | 3.0 | 0.00 | 0.00 | 0.00 | 47 | 1006.5 |
| 20260507145159 | 55 | 221 | 0.0 | 3.0 | 0.00 | 0.00 | 0.00 | 47 | 1006.5 |
| 20260507144659 | 55 | 221 | 0.0 | 3.0 | 0.00 | 0.00 | 0.00 | 47 | 1006.5 |
| 20260507144159 | 55 | 221 | 0.0 | 3.0 | 0.00 | 0.00 | 0.00 | 48 | 1006.5 |
| 20260507143659 | 55 | 221 | 0.0 | 3.0 | 0.00 | 0.00 | 0.00 | 48 | 1006.4 |
| 20260507143159 | 54 | 221 | 0.0 | 3.0 | 0.00 | 0.00 | 0.00 | 49 | 1006.3 |
| 20260507142659 | 54 | 221 | 0.0 | 3.0 | 0.00 | 0.00 | 0.00 | 49 | 1006.3 |
| 20260507142200 | 54 | 221 | 0.0 | 3.0 | 0.00 | 0.00 | 0.00 | 50 | 1006.3 |
| 20260507141659 | 53 | 221 | 0.0 | 3.0 | 0.00 | 0.00 | 0.00 | 51 | 1006.2 |
| 20260507141200 | 53 | 221 | 0.0 | 3.0 | 0.00 | 0.00 | 0.00 | 52 | 1006.2 |
| 20260507140659 | 53 | 221 | 0.0 | 3.0 | 0.00 | 0.00 | 0.00 | 53 | 1006.2 |
| 20260507140200 | 54 | 221 | 0.0 | 3.0 | 0.00 | 0.00 | 0.00 | 51 | 1006.0 |
| 20260507135700 | 54 | 221 | 0.0 | 3.0 | 0.00 | 0.00 | 0.00 | 51 | 1006.1 |
| 20260507135200 | 54 | 221 | 0.0 | 3.0 | 0.00 | 0.00 | 0.00 | 51 | 1006.1 |
| 20260507134700 | 54 | 221 | 0.0 | 3.0 | 0.00 | 0.00 | 0.00 | 50 | 1005.9 |
| 20260507134158 | 53 | 221 | 0.0 | 3.0 | 0.00 | 0.00 | 0.00 | 50 | 1005.9 |
| 20260507133659 | 53 | 221 | 0.0 | 3.0 | 0.00 | 0.00 | 0.00 | 51 | 1005.8 |
| 20260507133159 | 53 | 221 | 0.0 | 3.0 | 0.00 | 0.00 | 0.00 | 51 | 1005.8 |
| 20260507132659 | 52 | 221 | 0.0 | 3.0 | 0.00 | 0.00 | 0.00 | 52 | 1005.7 |
| 20260507132200 | 52 | 221 | 0.0 | 3.0 | 0.00 | 0.00 | 0.00 | 52 | 1005.7 |
| 20260507131700 | 52 | 221 | 0.0 | 3.0 | 0.00 | 0.00 | 0.00 | 54 | 1005.6 |
| 20260507131200 | 52 | 221 | 0.0 | 3.0 | 0.00 | 0.00 | 0.00 | 53 | 1005.7 |
| 20260507130659 | 52 | 221 | 0.0 | 3.0 | 0.00 | 0.00 | 0.00 | 52 | 1005.6 |
| 20260507130200 | 52 | 221 | 0.0 | 3.0 | 0.00 | 0.00 | 0.00 | 53 | 1005.7 |
| 20260507125700 | 52 | 221 | 0.0 | 3.0 | 0.00 | 0.00 | 0.00 | 52 | 1005.7 |
| 20260507125200 | 51 | 221 | 0.0 | 3.0 | 0.00 | 0.00 | 0.00 | 52 | 1005.8 |
| 20260507124700 | 51 | 252 | 0.0 | 3.0 | 0.00 | 0.00 | 0.00 | 53 | 1005.8 |
| 20260507124200 | 51 | 252 | 0.0 | 3.0 | 0.00 | 0.00 | 0.00 | 53 | 1005.7 |
| 20260507123700 | 51 | 252 | 0.0 | 3.0 | 0.00 | 0.00 | 0.00 | 54 | 1005.7 |
| 20260507123159 | 51 | 252 | 0.0 | 3.0 | 0.00 | 0.00 | 0.00 | 53 | 1005.7 |
| 20260507122700 | 51 | 252 | 0.0 | 3.0 | 0.00 | 0.00 | 0.00 | 52 | 1005.7 |
| 20260507122216 | 51 | 252 | 0.0 | 3.0 | 0.00 | 0.00 | 0.00 | 52 | 1005.7 |
| 20260507121716 | 51 | 252 | 0.0 | 3.0 | 0.00 | 0.00 | 0.00 | 53 | 1005.7 |
| 20260507121214 | 50 | 15 | 0.0 | 3.0 | 0.00 | 0.00 | 0.00 | 52 | 1005.7 |
| 20260507120714 | 50 | 15 | 0.0 | 3.0 | 0.00 | 0.00 | 0.00 | 52 | 1005.6 |
| 20260507120215 | 50 | 15 | 0.0 | 3.0 | 0.00 | 0.00 | 0.00 | 52 | 1005.7 |
| 20260507115714 | 50 | 15 | 0.0 | 3.0 | 0.00 | 0.00 | 0.00 | 52 | 1005.6 |
| 20260507115214 | 50 | 15 | 0.0 | 3.0 | 0.00 | 0.00 | 0.00 | 52 | 1005.6 |
| 20260507114715 | 50 | 15 | 0.0 | 3.0 | 0.00 | 0.00 | 0.00 | 52 | 1005.5 |
| 20260507114215 | 50 | 15 | 0.0 | 3.0 | 0.00 | 0.00 | 0.00 | 52 | 1005.6 |
| 20260507113715 | 50 | 15 | 0.0 | 3.0 | 0.00 | 0.00 | 0.00 | 53 | 1005.6 |
| 20260507113215 | 50 | 15 | 0.0 | 3.0 | 0.00 | 0.00 | 0.00 | 53 | 1005.5 |
| 20260507112716 | 50 | 15 | 0.0 | 3.0 | 0.00 | 0.00 | 0.00 | 52 | 1005.4 |
| 20260507112215 | 50 | 15 | 0.0 | 3.0 | 0.00 | 0.00 | 0.00 | 52 | 1005.4 |
| 20260507111714 | 50 | 15 | 0.0 | 3.0 | 0.00 | 0.00 | 0.00 | 52 | 1005.4 |
| 20260507111216 | 51 | 15 | 0.0 | 3.0 | 0.00 | 0.00 | 0.00 | 51 | 1005.4 |
| 20260507110716 | 51 | 15 | 0.0 | 3.0 | 0.00 | 0.00 | 0.00 | 51 | 1005.4 |
| 20260507110215 | 51 | 15 | 0.0 | 3.0 | 0.00 | 0.00 | 0.00 | 51 | 1005.3 |
| 20260507105714 | 51 | 15 | 0.0 | 3.0 | 0.00 | 0.00 | 0.00 | 51 | 1005.5 |
| 20260507105215 | 51 | 15 | 0.0 | 3.0 | 0.00 | 0.00 | 0.00 | 51 | 1005.3 |
| 20260507104715 | 51 | 15 | 0.0 | 3.0 | 0.00 | 0.00 | 0.00 | 51 | 1005.4 |
| 20260507104214 | 51 | 15 | 0.0 | 3.0 | 0.00 | 0.00 | 0.00 | 52 | 1005.4 |
| 20260507103714 | 51 | 15 | 0.0 | 3.0 | 0.00 | 0.00 | 0.00 | 51 | 1005.4 |
| 20260507103215 | 51 | 15 | 0.0 | 3.0 | 0.00 | 0.00 | 0.00 | 51 | 1005.4 |
| 20260507102715 | 51 | 15 | 0.0 | 3.0 | 0.00 | 0.00 | 0.00 | 50 | 1005.4 |
| 20260507102215 | 51 | 15 | 0.0 | 3.0 | 0.00 | 0.00 | 0.00 | 51 | 1005.4 |
| 20260507101715 | 51 | 15 | 0.0 | 3.0 | 0.00 | 0.00 | 0.00 | 51 | 1005.4 |
| 20260507101214 | 51 | 15 | 0.0 | 3.0 | 0.00 | 0.00 | 0.00 | 52 | 1005.4 |
| 20260507100714 | 51 | 15 | 0.0 | 3.0 | 0.00 | 0.00 | 0.00 | 52 | 1005.3 |
| 20260507100214 | 51 | 15 | 0.0 | 3.0 | 0.00 | 0.00 | 0.00 | 52 | 1005.4 |
| 20260507095715 | 51 | 15 | 0.0 | 3.0 | 0.00 | 0.00 | 0.00 | 53 | 1005.4 |
| 20260507095216 | 51 | 15 | 0.0 | 3.0 | 0.00 | 0.00 | 0.00 | 53 | 1005.4 |
| 20260507094715 | 51 | 15 | 0.0 | 3.0 | 0.00 | 0.00 | 0.00 | 53 | 1005.5 |
| 20260507094122 | 51 | 15 | 0.0 | 3.0 | 0.00 | 0.00 | 0.00 | 53 | 1005.6 |
| 20260507093623 | 51 | 15 | 0.0 | 3.0 | 0.00 | 0.00 | 0.00 | 54 | 1005.7 |
| 20260507093123 | 51 | 15 | 0.0 | 3.0 | 0.00 | 0.00 | 0.00 | 54 | 1005.6 |
| 20260507092622 | 50 | 15 | 0.0 | 3.0 | 0.00 | 0.00 | 0.00 | 54 | 1005.6 |
| 20260507092122 | 50 | 15 | 0.0 | 3.0 | 0.00 | 0.00 | 0.00 | 54 | 1005.6 |
| 20260507091622 | 50 | 15 | 0.0 | 3.0 | 0.00 | 0.00 | 0.00 | 55 | 1005.4 |
| 20260507091122 | 51 | 15 | 0.0 | 3.0 | 0.00 | 0.00 | 0.00 | 56 | 1005.3 |
| 20260507090621 | 51 | 15 | 0.0 | 3.0 | 0.00 | 0.00 | 0.00 | 56 | 1005.2 |
| 20260507090123 | 51 | 15 | 0.0 | 3.0 | 0.00 | 0.00 | 0.00 | 55 | 1005.3 |
| 20260507085622 | 51 | 15 | 0.0 | 3.0 | 0.00 | 0.00 | 0.00 | 53 | 1005.3 |
| 20260507085123 | 51 | 15 | 0.0 | 3.0 | 0.00 | 0.00 | 0.00 | 52 | 1005.4 |
| 20260507084622 | 51 | 15 | 0.0 | 3.0 | 0.00 | 0.00 | 0.00 | 52 | 1005.3 |
| 20260507084122 | 51 | 15 | 0.0 | 3.0 | 0.00 | 0.00 | 0.00 | 52 | 1005.4 |
| 20260507083623 | 51 | 15 | 0.0 | 3.0 | 0.00 | 0.00 | 0.00 | 52 | 1005.4 |
| 20260507083122 | 51 | 15 | 0.0 | 3.0 | 0.00 | 0.00 | 0.00 | 52 | 1005.4 |
| 20260507082621 | 51 | 15 | 0.0 | 3.0 | 0.00 | 0.00 | 0.00 | 52 | 1005.4 |
| 20260507082123 | 51 | 15 | 0.0 | 3.0 | 0.00 | 0.00 | 0.00 | 52 | 1005.5 |
| 20260507081622 | 51 | 15 | 0.0 | 3.0 | 0.00 | 0.00 | 0.00 | 52 | 1005.6 |
| 20260507081121 | 51 | 15 | 0.0 | 3.0 | 0.00 | 0.00 | 0.00 | 52 | 1005.7 |
| 20260507080623 | 51 | 15 | 0.0 | 3.0 | 0.00 | 0.00 | 0.00 | 52 | 1005.7 |
| 20260507080123 | 51 | 15 | 0.0 | 3.0 | 0.00 | 0.00 | 0.00 | 52 | 1005.7 |
| 20260507075622 | 51 | 15 | 0.0 | 3.0 | 0.00 | 0.00 | 0.00 | 51 | 1005.8 |
| 20260507075122 | 51 | 15 | 0.0 | 3.0 | 0.00 | 0.00 | 0.00 | 50 | 1005.9 |
| 20260507074442 | 51 | 15 | 0.0 | 3.0 | 0.00 | 0.00 | 0.00 | 50 | 1006.0 |
| 20260507073941 | 52 | 15 | 0.0 | 3.0 | 0.00 | 0.00 | 0.00 | 49 | 1006.0 |
| 20260507073509 | 52 | 15 | 0.0 | 3.0 | 0.00 | 0.00 | 0.00 | 48 | 1006.1 |
| 20260507073011 | 52 | 15 | 0.0 | 3.0 | 0.00 | 0.00 | 0.00 | 49 | 1006.1 |
| 20260507072510 | 52 | 15 | 0.0 | 3.0 | 0.00 | 0.00 | 0.00 | 48 | 1006.1 |
| 20260507072009 | 52 | 15 | 0.0 | 3.0 | 0.00 | 0.00 | 0.00 | 48 | 1006.0 |
| 20260507071511 | 52 | 15 | 0.0 | 3.0 | 0.00 | 0.00 | 0.00 | 48 | 1006.0 |
| 20260507071010 | 52 | 15 | 0.0 | 3.0 | 0.00 | 0.00 | 0.00 | 48 | 1006.0 |
| 20260507070510 | 52 | 15 | 0.0 | 3.0 | 0.00 | 0.00 | 0.00 | 48 | 1006.0 |
| 20260507070013 | 52 | 15 | 0.0 | 3.0 | 0.00 | 0.00 | 0.00 | 48 | 1006.0 |
| 20260507065511 | 52 | 15 | 0.0 | 3.0 | 0.00 | 0.00 | 0.00 | 47 | 1006.0 |
| 20260507065011 | 52 | 15 | 0.0 | 3.0 | 0.00 | 0.00 | 0.00 | 47 | 1006.0 |
| 20260507064510 | 52 | 15 | 0.0 | 3.0 | 0.00 | 0.00 | 0.00 | 47 | 1006.0 |
| 20260507064010 | 52 | 15 | 0.0 | 3.0 | 0.00 | 0.00 | 0.00 | 48 | 1006.0 |
| 20260507063509 | 52 | 15 | 0.0 | 3.0 | 0.00 | 0.00 | 0.00 | 47 | 1006.0 |
| 20260507063009 | 52 | 15 | 0.0 | 3.0 | 0.00 | 0.00 | 0.00 | 47 | 1006.0 |
| 20260507062510 | 52 | 15 | 0.0 | 3.0 | 0.00 | 0.00 | 0.00 | 46 | 1006.0 |
| 20260507062009 | 52 | 15 | 0.0 | 3.0 | 0.00 | 0.00 | 0.00 | 46 | 1006.0 |
| 20260507061509 | 52 | 10 | 0.0 | 3.0 | 0.00 | 0.00 | 0.00 | 45 | 1006.2 |
| 20260507061010 | 52 | 32 | 0.0 | 3.0 | 0.00 | 0.00 | 0.00 | 45 | 1006.2 |
| 20260507060510 | 52 | 134 | 0.0 | 0.0 | 0.00 | 0.00 | 0.00 | 44 | 1005.9 |
| 20260507060009 | 52 | 134 | 0.0 | 0.0 | 0.00 | 0.00 | 0.00 | 44 | 1005.7 |
| 20260507055509 | 52 | 134 | 0.0 | 10.0 | 0.00 | 0.00 | 0.00 | 43 | 1005.5 |
| 20260507055011 | 53 | 134 | 0.0 | 10.0 | 0.00 | 0.00 | 0.00 | 43 | 1005.5 |
| 20260507054511 | 53 | 134 | 0.0 | 10.0 | 0.00 | 0.00 | 0.00 | 43 | 1005.3 |
| 20260507054011 | 53 | 134 | 0.0 | 10.0 | 0.00 | 0.00 | 0.00 | 43 | 1005.4 |
| 20260507053510 | 54 | 134 | 0.0 | 10.0 | 0.00 | 0.00 | 0.00 | 42 | 1005.3 |
| 20260507053009 | 54 | 134 | 0.0 | 10.0 | 0.00 | 0.00 | 0.00 | 42 | 1005.2 |
| 20260507052509 | 54 | 134 | 0.0 | 10.0 | 0.00 | 0.00 | 0.00 | 41 | 1005.3 |
| 20260507052009 | 55 | 134 | 0.0 | 10.0 | 0.00 | 0.00 | 0.00 | 42 | 1005.2 |
| 20260507051510 | 55 | 134 | 0.0 | 10.0 | 0.00 | 0.00 | 0.00 | 42 | 1005.2 |
| 20260507051010 | 55 | 134 | 0.0 | 10.0 | 0.00 | 0.00 | 0.00 | 41 | 1005.4 |
| 20260507050511 | 55 | 134 | 0.0 | 10.0 | 0.00 | 0.00 | 0.00 | 40 | 1005.2 |
| 20260507050010 | 55 | 134 | 0.0 | 10.0 | 0.00 | 0.00 | 0.00 | 41 | 1005.2 |
| 20260507045510 | 55 | 134 | 0.0 | 10.0 | 0.00 | 0.00 | 0.00 | 42 | 1005.2 |
| 20260507045009 | 55 | 134 | 0.0 | 10.0 | 0.00 | 0.00 | 0.00 | 41 | 1005.2 |
| 20260507044510 | 55 | 134 | 0.0 | 10.0 | 0.00 | 0.00 | 0.00 | 40 | 1005.0 |
| 20260507044009 | 56 | 134 | 0.0 | 10.0 | 0.00 | 0.00 | 0.00 | 40 | 1004.8 |
| 20260507043510 | 56 | 134 | 0.0 | 10.0 | 0.00 | 0.00 | 0.00 | 40 | 1004.7 |
| 20260507043010 | 56 | 134 | 0.0 | 10.0 | 0.00 | 0.00 | 0.00 | 40 | 1004.6 |
| 20260507042509 | 56 | 134 | 0.0 | 10.0 | 0.00 | 0.00 | 0.00 | 39 | 1004.5 |
| 20260507042010 | 57 | 134 | 0.0 | 10.0 | 0.00 | 0.00 | 0.00 | 39 | 1004.4 |
| 20260507041510 | 57 | 134 | 0.0 | 10.0 | 0.00 | 0.00 | 0.00 | 39 | 1004.3 |
| 20260507041009 | 57 | 135 | 0.0 | 10.0 | 0.00 | 0.00 | 0.00 | 38 | 1004.4 |
| 20260507040509 | 57 | 132 | 0.0 | 10.0 | 0.00 | 0.00 | 0.00 | 38 | 1004.3 |
| 20260507040010 | 58 | 123 | 0.0 | 10.0 | 0.00 | 0.00 | 0.00 | 39 | 1004.3 |
| 20260507035510 | 58 | 84 | 0.0 | 10.0 | 0.00 | 0.00 | 0.00 | 39 | 1004.2 |
| 20260507035010 | 58 | 82 | 0.0 | 10.0 | 0.00 | 0.00 | 0.00 | 39 | 1004.1 |
| 20260507034510 | 58 | 99 | 0.0 | 10.0 | 0.00 | 0.00 | 0.00 | 39 | 1004.0 |
| 20260507034009 | 59 | 105 | 0.0 | 10.0 | 0.00 | 0.00 | 0.00 | 39 | 1004.0 |
| 20260507033509 | 59 | 47 | 1.0 | 10.0 | 0.00 | 0.00 | 0.00 | 38 | 1004.0 |
| 20260507033009 | 59 | 163 | 0.0 | 10.0 | 0.00 | 0.00 | 0.00 | 38 | 1003.9 |
| 20260507032509 | 59 | 163 | 0.0 | 10.0 | 0.00 | 0.00 | 0.00 | 37 | 1003.8 |
| 20260507032009 | 60 | 29 | 2.0 | 10.0 | 0.00 | 0.00 | 0.00 | 36 | 1003.7 |
| 20260507031508 | 60 | 352 | 2.0 | 10.0 | 0.00 | 0.00 | 0.00 | 35 | 1003.7 |
| 20260507031010 | 60 | 336 | 0.0 | 10.0 | 0.00 | 0.00 | 0.00 | 34 | 1003.7 |
| 20260507030510 | 61 | 342 | 2.0 | 10.0 | 0.00 | 0.00 | 0.00 | 33 | 1003.6 |
| 20260507030010 | 61 | 214 | 1.0 | 10.0 | 0.00 | 0.00 | 0.00 | 33 | 1003.5 |
| 20260507025510 | 61 | 25 | 1.0 | 10.0 | 0.00 | 0.00 | 0.00 | 33 | 1003.4 |
| 20260507025010 | 62 | 0 | 6.0 | 10.0 | 0.00 | 0.00 | 0.00 | 32 | 1003.2 |
| 20260507024510 | 62 | 12 | 3.0 | 10.0 | 0.00 | 0.00 | 0.00 | 31 | 1003.1 |
| 20260507024009 | 63 | 10 | 1.0 | 10.0 | 0.00 | 0.00 | 0.00 | 32 | 1003.1 |
| 20260507023509 | 64 | 10 | 2.0 | 10.0 | 0.00 | 0.00 | 0.00 | 33 | 1002.9 |
| 20260507023010 | 64 | 6 | 1.0 | 10.0 | 0.00 | 0.00 | 0.00 | 33 | 1002.8 |
| 20260507022509 | 64 | 355 | 0.0 | 10.0 | 0.00 | 0.00 | 0.00 | 33 | 1002.7 |
| 20260507022009 | 64 | 356 | 1.0 | 10.0 | 0.00 | 0.00 | 0.00 | 32 | 1002.6 |
| 20260507021510 | 64 | 29 | 1.0 | 10.0 | 0.00 | 0.00 | 0.00 | 32 | 1002.6 |
| 20260507021009 | 65 | 351 | 1.0 | 10.0 | 0.00 | 0.00 | 0.00 | 31 | 1002.5 |
| 20260507020509 | 65 | 347 | 2.0 | 10.0 | 0.00 | 0.00 | 0.00 | 31 | 1002.5 |
| 20260507020009 | 65 | 17 | 3.0 | 10.0 | 0.00 | 0.00 | 0.00 | 31 | 1002.4 |
| 20260507015510 | 65 | 0 | 3.0 | 10.0 | 0.00 | 0.00 | 0.00 | 31 | 1002.5 |
| 20260507015010 | 66 | 34 | 2.0 | 10.0 | 0.00 | 0.00 | 0.00 | 30 | 1002.4 |
| 20260507014509 | 66 | 355 | 1.0 | 10.0 | 0.00 | 0.00 | 0.00 | 31 | 1002.4 |
| 20260507014008 | 66 | 41 | 1.0 | 10.0 | 0.00 | 0.00 | 0.00 | 31 | 1002.4 |
| 20260507013508 | 66 | 4 | 0.0 | 10.0 | 0.00 | 0.00 | 0.00 | 31 | 1002.4 |
| 20260507013010 | 66 | 45 | 0.0 | 10.0 | 0.00 | 0.00 | 0.00 | 31 | 1002.4 |
| 20260507012509 | 66 | 16 | 2.0 | 10.0 | 0.00 | 0.00 | 0.00 | 31 | 1002.4 |
| 20260507012019 | 66 | 5 | 2.0 | 10.0 | 0.00 | 0.00 | 0.00 | 31 | 1002.4 |
| 20260507011520 | 66 | 10 | 2.0 | 10.0 | 0.00 | 0.00 | 0.00 | 31 | 1002.3 |
| 20260507011019 | 66 | 3 | 3.0 | 10.0 | 0.00 | 0.00 | 0.00 | 31 | 1002.4 |
| 20260507010519 | 66 | 12 | 3.0 | 10.0 | 0.00 | 0.00 | 0.00 | 31 | 1002.3 |
| 20260507010020 | 66 | 33 | 2.0 | 10.0 | 0.00 | 0.00 | 0.00 | 31 | 1002.2 |
| 20260507005519 | 66 | 27 | 1.0 | 10.0 | 0.00 | 0.00 | 0.00 | 31 | 1002.2 |
| 20260507005021 | 66 | 13 | 0.0 | 10.0 | 0.00 | 0.00 | 0.00 | 31 | 1002.3 |
| 20260507004521 | 67 | 34 | 3.0 | 8.0 | 0.00 | 0.00 | 0.00 | 31 | 1002.5 |